Notices

What's New in latest Release from April 7th, 2021:

- Updated Glossary, including Speed of Maximum Gust, and Total Hourly Precipitation

- Updated national and regional climate services offices contacts and prices information

- Addition of station inventory lists for 1981-2010, 1971-2000, and 1961-1990 Normals.

If you haven't already, please take our survey and provide feedback about our website: https://eccc.sondage-survey.ca/f/LanguageSelection.aspx?s=442ca660-fcf1-47c0-95a9-59707d6fd709

Hourly Data Report for October 02, 2004

SHERBROOKE A
QUEBEC

45°26'00.000" N
71°41'00.000" W
241.40 m
7028124
71610
YSC

Download Data

Hourly Data (October 2004)
Hourly Data Report for October 2, 2004
TIME
LST
Temp Definition
°C
Dew Point Definition
°C
Rel Hum Definition
%
Precip. Amount Definition
mm

Wind Dir Definition
10's deg

Wind Spd Definition
km/h
Visibility Definition
km
Stn Press Definition
kPa
Hmdx Definition


Wind Chill Definition


Weather Definition


00:00 7.7 6.2 90   9 6 15.0 99.38      
01:00 6.7 5.5 92   10 4 15.0 99.38      
02:00 6.6 5.4 92   10 6 15.0 99.38      
03:00 7.3 6.3 93   10 11 15.0 99.34      
04:00 5.5 4.2 91     0 15.0 99.32      
05:00 8.1 6.9 92   10 13 15.0 99.25      
06:00 9.5 8.0 90   11 11 15.0 99.24      
07:00 11.6 9.7 88     0 24.1 99.23     Mostly Cloudy
08:00 14.7 11.3 80   11 4 24.1 99.18     Mostly Cloudy
09:00 17.6 11.4 67   17 13 24.1 99.06     Mostly Cloudy
10:00 18.6 10.4 59   18 20 24.1 98.97     Mostly Cloudy
11:00 19.2 10.0 55   18 20 24.1 98.90     Mostly Cloudy
12:00 19.2 10.0 55   19 15 24.1 98.82     Mostly Cloudy
13:00 19.4 9.9 54   18 26 24.1 98.74     Cloudy
14:00 18.7 10.6 59   18 17 19.3 98.68     Cloudy
15:00 17.8 10.4 62   19 19 19.3 98.66     Cloudy
16:00 16.4 11.1 71   19 11 19.3 98.63     Rain
17:00 15.3 11.4 78   17 13 15.0 98.57     Rain
18:00 15.5 11.3 76   17 19 15.0 98.54      
19:00 15.9 11.7 76   19 17 15.0 98.56      
20:00 14.7 12.7 88   19 19 9.7 98.57     Rain
21:00 13.2 12.1 93   26 24 15.0 98.80      
22:00 9.2 5.1 75   24 9 15.0 99.08      
23:00 7.5 5.1 85   27 20 15.0 99.22      

Notes on Data Quality.

Legend

  • E = Estimated
  • M = Missing
  • NA = Not Available*
  • [empty] = Indicates an unobserved value
Date modified: